Hermiston, OR

2:28 PM PDT on May 23, 2017 (GMT -0700)
Hermiston Municipal

Weather History for KHRI - April, 2013

Change the Weather History Date:

Thursday, April 4, 2013

  Actual Average Record
Temperature  
Mean Temperature 54 °F 50 °F  
Max Temperature 63 °F 63 °F 81 °F (1944)
Min Temperature 46 °F 36 °F 16 °F (1918)
Degree Days  
Heating Degree Days 11    
Growing Degree Days 4 (Base 50)    
Moisture  
Dew Point 47 °F    
Average Humidity 77    
Maximum Humidity 97    
Minimum Humidity 64    
Precipitation  
Precipitation 0.13 in 0.03 in 0.25 in (1919)
Month to date precipitation 0.11  
Year to date precipitation 3.50  
Sea Level Pressure  
Sea Level Pressure 29.80 in    
Wind  
Wind Speed 7 mph (South)    
Max Wind Speed 22 mph    
Max Gust Speed 44 mph    
Visibility 10 miles    
Events Rain    
T = Trace of Precipitation, MM = Missing Value Source: NWS Daily Summary

Daily Weather History Graph

Daily Weather History Graph

Search for Another Location

Airport or City:

Trip Planner

Search our weather history database for the weather conditions in past years. The results will help you decide how hot, cold, wet, or windy it might be!

Date:

Astronomy

Apr. 04, 2013 Rise Set
Actual Time 6:30 AM PDT 7:29 PM PDT
Civil Twilight 6:00 AM PDT 8:00 PM PDT
Nautical Twilight 5:24 AM PDT 8:36 PM PDT
Astronomical Twilight 4:46 AM PDT 9:14 PM PDT
Moon 3:18 AM PDT (4/4) 1:37 PM PDT (4/4)
Length of Visible Light 13h 59m
Length of Day
12h 59m
Waning Crescent, 32% of the Moon is Illuminated
Apr 4
Waning Crescent
Apr 10
New
Apr 18
First Quarter
Apr 25
Full
May 2
Last Quarter

Hourly Weather History & Observations

Time (PDT) Temp. Windchill Dew Point Humidity Pressure Visibility Wind Dir Wind Speed Gust Speed Precip Events Conditions
12:53 AM 54.0 °F - 43.0 °F 66% 29.91 in 10.0 mi ESE 4.6 mph - N/A   Clear
1:53 AM 51.1 °F - 43.0 °F 74% 29.90 in 10.0 mi ESE 3.5 mph - N/A   Clear
2:53 AM 51.1 °F - 42.1 °F 71% 29.88 in 10.0 mi SE 9.2 mph - N/A   Clear
3:53 AM 46.0 °F 43.1 °F 42.1 °F 86% 29.88 in 10.0 mi SSW 5.8 mph - N/A   Clear
4:53 AM 46.0 °F 44.8 °F 42.1 °F 86% 29.87 in 10.0 mi SSW 3.5 mph - N/A   Clear
5:53 AM 48.9 °F - 43.0 °F 80% 29.79 in 10.0 mi ENE 13.8 mph - N/A   Overcast
6:00 AM 50.0 °F - 42.8 °F 76% 29.79 in 10.0 mi NE 11.5 mph - N/A   Overcast
6:53 AM 50.0 °F - 44.1 °F 80% 29.82 in 10.0 mi SSW 8.1 mph - N/A   Overcast
7:53 AM 53.1 °F - 44.1 °F 71% 29.80 in 10.0 mi NW 6.9 mph - N/A   Overcast
8:53 AM 53.1 °F - 44.1 °F 71% 29.79 in 10.0 mi WNW 4.6 mph - N/A   Overcast
9:53 AM 55.9 °F - 44.1 °F 64% 29.78 in 10.0 mi SW 6.9 mph - N/A   Overcast
10:53 AM 57.0 °F - 45.0 °F 64% 29.81 in 10.0 mi SW 4.6 mph - N/A   Overcast
11:53 AM 57.9 °F - 46.9 °F 67% 29.80 in 10.0 mi Variable 3.5 mph - 0.00 in Rain Light Rain
12:53 PM 57.9 °F - 46.9 °F 67% 29.79 in 10.0 mi NNW 4.6 mph - 0.00 in Rain Light Rain
1:53 PM 57.0 °F - 48.0 °F 72% 29.76 in 10.0 mi NNE 5.8 mph - 0.01 in Rain Light Rain
2:53 PM 57.9 °F - 50.0 °F 75% 29.74 in 10.0 mi East 10.4 mph - 0.00 in   Mostly Cloudy
3:53 PM 62.1 °F - 51.1 °F 67% 29.72 in 10.0 mi ENE 8.1 mph - 0.00 in   Scattered Clouds
4:53 PM 62.1 °F - 51.1 °F 67% 29.69 in 10.0 mi NE 13.8 mph - 0.00 in   Overcast
5:53 PM 59.0 °F - 51.1 °F 75% 29.68 in 10.0 mi North 8.1 mph - N/A   Mostly Cloudy
6:14 PM 55.4 °F - 51.8 °F 88% 29.78 in 3.0 mi West 21.9 mph 43.7 mph 0.07 in Rain Rain
6:53 PM 55.0 °F - 52.0 °F 89% 29.76 in 10.0 mi West 3.5 mph - 0.12 in   Overcast
7:53 PM 54.0 °F - 52.0 °F 93% 29.77 in 10.0 mi South 10.4 mph - N/A   Scattered Clouds
8:53 PM 54.0 °F - 51.1 °F 90% 29.80 in 10.0 mi South 5.8 mph - N/A   Clear
9:53 PM 51.1 °F - 48.9 °F 92% 29.81 in 10.0 mi SW 4.6 mph - N/A   Partly Cloudy
10:53 PM 48.9 °F - 48.0 °F 97% 29.82 in 9.0 mi SSE 4.6 mph - N/A   Mostly Cloudy
11:53 PM 52.0 °F - 46.9 °F 83% 29.83 in 10.0 mi South 8.1 mph - N/A   Mostly Cloudy